Flag for Germany Weather past 2 weeks in Siegburg, North Rhine-Westphalia, Germany

Now
64 °F

Clear.


Feels Like: 64 °F
Forecast: 59 / 74 °F
Wind: 2 mph from East

Location: Bonn-Hangelar

Current Time: Jul 24, 2014 at 3:08:08 AM

Latest Report: Jul 24, 2014 at 2:00 AM


Visibility: 7 mi

Pressure: 30.00 "Hg

Humidity: 88%

Dew point: 60 °F

Location of SiegburgLocation

Historic Weather in Siegburg — Graph

°F

Siegburg temperature yesterday

Maximum temperature yesterday: 83 °F (at 4:00 PM)
Minimum temperature yesterday: 62 °F (at 6:00 AM)
Average temperature yesterday: 72 °F

Past Weeks' High & Low Weather Summary

 TemperatureHumidityPressure
High93 °F (Jul 19, 5:00 PM)100% (Jul 10, 3:00 AM)30.20 "Hg (Jul 10, 3:00 AM)
Low54 °F (Jul 9, 2:00 AM)23% (Jul 19, 3:00 PM)29.71 "Hg (Jul 9, 6:00 PM)
Average68 °F78%29.96 "Hg
* Reported Jul 9 2:00 AM — Jul 24 2:00 AM, Siegburg, Weather by CustomWeather, © 2014

Note: Actual official high and low records may vary slightly from our data, if they occured in-between our weather recording intervals... More about our weather records

Advertising

Siegburg weather history for previous 24 hours

 ConditionsComfort  
Time TempWeatherWind HumidityBarometerVisibility
2:00 AM
Jul 24
64 °FClear.2 mph88%30.00 "Hg7 mi
1:00 AM66 °FClear.2 mph85%30.00 "Hg9 mi
12:00 AM68 °FOvercast.2 mph80%30.01 "Hg9 mi
11:00 PM
Jul 23
71 °FOvercast.2 mph70%30.01 "Hg14 mi
10:00 PM69 °FRain. Passing clouds.8 mph74%30.01 "Hg3 mi
9:00 PM74 °FPassing clouds.1 mph68%29.98 "Hg28 mi
8:00 PM77 °FPassing clouds.3 mph61%29.98 "Hg28 mi
7:00 PM77 °FPassing clouds.5 mph58%29.98 "Hg28 mi
6:00 PM74 °FThunderstorms. Scattered clouds.2 mph70%29.99 "Hg22 mi
5:00 PM82 °FScattered clouds.6 mph44%29.98 "Hg25 mi
4:00 PM83 °FScattered clouds.6 mph45%29.99 "Hg25 mi
3:00 PM82 °FScattered clouds.6 mph50%30.00 "Hg22 mi
6:00 AM62 °FFog.1 mph92%30.07 "Hg5 mi
5:00 AM63 °FFog.1 mph92%30.07 "Hg3 mi
4:00 AM64 °FFog.2 mph87%30.08 "Hg4 mi
3:00 AM65 °FPassing clouds.1 mph87%30.08 "Hg6 mi
Weather by CustomWeather, © 2014

See weather overviewHow to use our weather pages